(356) Liguria
ephemeris date magn radius delta ra dec elong phase
Today26 Jul 202614.32.951 AU3.419 AU11h46m-01°04'54.7°16.3°
Opposition21 May 202713.23.390 AU2.390 AU15h40m-30°30'169.4°3.2°
(356) Liguria - 2026-07-26
astro.vanbuitenen.nl


 
-1 year
-1 month
-1 day
Now
+1 day
+1 month
+1 year

The interactive orbit chart above shows the body's path through the solar system and its position at the given date. Green and blue lines are shown perpendicular to the ecliptic plane: Green if the path is above the ecliptic plane, blue if it is below. (Left-click and drag to rotate the view; Right-click and drag to move the view; Use scroll wheel to zoom in our out.)

The orbital elements of Liguria are:

            e (Eccentricity)                : 0.2420203
            a (Semimajor axis)              : 2.7537605
            i (Inclination)                 : 8.20731
            Ω (Longitude of ascending node) : 354.44459
            ω (Argument of perihelion)      : 79.27114
            M (Mean anomaly)                : 83.78899
            Epoch                           : 2026 Jun 09

            L (Longitude of perihelion)     : 73.60732
            B (Latitude of perihelion)      : 8.06288
            P (Orbital period in years)     : 4.57            
        

The light curve chart below shows the estimated development of the minor planet's magnitude.


The all-sky chart below shows the path of the minor planet over the same period as the light curve. The current position is marked yellow.





The following chart shows the path of the minor planet in the next few days. The field of view is optimized for (~10x50) binoculars and finderscopes.




Ephemerides:
Date       Time       RA (2000)    DEC (2000)    delta   radius  elong  phase   PA    magn
2026-07-26 00:00 UT   11 46 23.7   -01 04 41     3.419    2.951   54.7   16.3   115   14.3 
2026-07-26 12:25 UT   11 47 00.1   -01 09 06     3.426    2.952   54.3   16.2   115   14.3 
2026-07-27 00:00 UT   11 47 34.2   -01 13 13     3.433    2.953   54.0   16.2   115   14.3 
2026-07-28 00:00 UT   11 48 44.9   -01 21 47     3.446    2.955   53.4   16.0   115   14.3 
2026-07-29 00:00 UT   11 49 55.9   -01 30 23     3.459    2.957   52.8   15.9   115   14.3 
2026-07-30 00:00 UT   11 51 07.2   -01 38 59     3.472    2.959   52.2   15.7   115   14.3 
2026-07-31 00:00 UT   11 52 18.8   -01 47 38     3.485    2.962   51.5   15.6   115   14.3 
2026-08-01 00:00 UT   11 53 30.6   -01 56 18     3.497    2.964   50.9   15.4   115   14.3 
2026-08-02 00:00 UT   11 54 42.6   -02 04 59     3.510    2.966   50.3   15.3   115   14.3 
2026-08-03 00:00 UT   11 55 54.9   -02 13 41     3.523    2.968   49.7   15.1   116   14.3 
2026-08-04 00:00 UT   11 57 07.4   -02 22 25     3.535    2.971   49.0   14.9   116   14.3 
2026-08-05 00:00 UT   11 58 20.2   -02 31 11     3.547    2.973   48.4   14.8   116   14.3 
2026-08-06 00:00 UT   11 59 33.2   -02 39 57     3.560    2.975   47.8   14.6   116   14.3 
2026-08-07 00:00 UT   12 00 46.4   -02 48 45     3.572    2.977   47.2   14.5   116   14.3 
2026-08-08 00:00 UT   12 01 59.9   -02 57 35     3.584    2.979   46.6   14.3   116   14.3 
2026-08-09 00:00 UT   12 03 13.5   -03 06 25     3.596    2.981   46.0   14.1   116   14.3 
2026-08-10 00:00 UT   12 04 27.4   -03 15 17     3.608    2.984   45.3   14.0   116   14.3 
2026-08-11 00:00 UT   12 05 41.6   -03 24 09     3.620    2.986   44.7   13.8   116   14.3 
2026-08-12 00:00 UT   12 06 55.9   -03 33 03     3.631    2.988   44.1   13.7   116   14.3 
2026-08-13 00:00 UT   12 08 10.4   -03 41 58     3.643    2.990   43.5   13.5   116   14.3 
2026-08-14 00:00 UT   12 09 25.2   -03 50 54     3.654    2.992   42.9   13.3   116   14.3 
2026-08-15 00:00 UT   12 10 40.2   -03 59 51     3.666    2.994   42.3   13.1   116   14.3 
2026-08-16 00:00 UT   12 11 55.3   -04 08 49     3.677    2.997   41.6   13.0   116   14.3 
2026-08-17 00:00 UT   12 13 10.6   -04 17 48     3.688    2.999   41.0   12.8   116   14.3 
2026-08-18 00:00 UT   12 14 26.2   -04 26 47     3.699    3.001   40.4   12.6   117   14.3 
2026-08-19 00:00 UT   12 15 41.9   -04 35 47     3.710    3.003   39.8   12.5   117   14.3 
2026-08-20 00:00 UT   12 16 57.8   -04 44 49     3.720    3.005   39.2   12.3   117   14.3 


    Terminology:
            
    delta:  distance between minor planet and earth in AU
    radius: distance between minor planet and sun in AU
    magn:   magnitude (brightness) estimate    
    ra:     right ascension in hours (24h = 360deg)
    dec:    declination in degrees
    elong:  elongation in degrees (angle sun-earth-minor planet)    
    phase:  phase angle in degrees (angle sun-minor planet-earth)        
    AU:     Astronomical Unit (mean distance between earth and sun: 149597870.7 km
    

Orbital elements provided by the MPC (Minor Planet Center).
Calculations by a modified version of AAPlus, a C# implementation of the AA+ project by PJ Naughter from the algorithms presented in the book "Astronomical Algorithms" by Jean Meeus.
NGC2000 dso catalog and star labels from VizieR as provided by the Strasbourg astronomical Data Center.
Tycho2 catalog from the ESO archive.